Canby, MN

7:34 AM CDT on March 28, 2017 (GMT -0500)
Canby

Weather History for KCNB - November, 2013

Change the Weather History Date:

Sunday, November 24, 2013

  Actual Average (KMML) Record (KMML)
Temperature  
Mean Temperature 24 °F -  
Max Temperature 41 °F 37 °F 65 °F (1984)
Min Temperature 6 °F 17 °F -10 °F (1985)
Degree Days  
Heating Degree Days 42    
Moisture  
Dew Point 15 °F    
Average Humidity 60    
Maximum Humidity 84    
Minimum Humidity 37    
Precipitation  
Precipitation 0.00 in - - ()
Sea Level Pressure  
Sea Level Pressure 30.19 in    
Wind  
Wind Speed 13 mph (SSW)    
Max Wind Speed 26 mph    
Max Gust Speed 40 mph    
Visibility 10 miles    
Events      
Averages and records for this station are not official NWS values.
T = Trace of Precipitation, MM = Missing Value Source: NWS Daily Summary

Daily Weather History Graph

Daily Weather History Graph

Search for Another Location

Airport or City:

Trip Planner

Search our weather history database for the weather conditions in past years. The results will help you decide how hot, cold, wet, or windy it might be!

Date:

Astronomy

Nov. 24, 2013 Rise Set
Actual Time 7:34 AM CST 4:49 PM CST
Civil Twilight 7:01 AM CST 5:21 PM CST
Nautical Twilight 6:25 AM CST 5:57 PM CST
Astronomical Twilight 5:50 AM CST 6:32 PM CST
Moon 11:24 PM CST (11/24) 12:15 PM CST (11/24)
Length of Visible Light 10h 19m
Length of Day
9h 15m
Waning Gibbous, 60% of the Moon is Illuminated
Nov 24
Waning Gibbous
Nov 25
Last Quarter
Dec 2
New
Dec 9
First Quarter
Dec 17
Full

Hourly Weather History & Observations

Time (CST) Temp. Windchill Dew Point Humidity Pressure Visibility Wind Dir Wind Speed Gust Speed Precip Events Conditions
12:14 AM 7.0 °F -1.7 °F 2.8 °F 83% 30.60 in 10.0 mi SSE 4.6 mph - N/A   Clear
12:34 AM 7.5 °F -1.1 °F 2.7 °F 81% 30.60 in 10.0 mi ESE 4.6 mph - N/A   Clear
12:55 AM 7.5 °F -1.1 °F 2.5 °F 80% 30.59 in 10.0 mi ESE 4.6 mph - N/A   Clear
1:14 AM 7.0 °F -1.7 °F 2.7 °F 82% 30.59 in 10.0 mi ESE 4.6 mph - N/A   Clear
1:34 AM 6.8 °F -3.5 °F 2.8 °F 84% 30.58 in 10.0 mi SE 5.8 mph - N/A   Clear
1:55 AM 7.7 °F -2.4 °F 3.2 °F 82% 30.56 in 10.0 mi SE 5.8 mph - N/A   Clear
2:15 AM 8.2 °F 1.6 °F 3.2 °F 80% 30.55 in 10.0 mi SSE 3.5 mph - N/A   Clear
2:34 AM 13.5 °F 0.5 °F 4.3 °F 67% 30.53 in 10.0 mi South 10.4 mph - N/A   Clear
2:55 AM 14.2 °F 0.7 °F 4.1 °F 64% 30.52 in 10.0 mi South 11.5 mph - N/A   Clear
3:14 AM 14.5 °F 2.7 °F 3.9 °F 63% 30.49 in 10.0 mi South 9.2 mph 17.3 mph N/A   Clear
3:34 AM 14.9 °F 1.6 °F 4.1 °F 62% 30.48 in 10.0 mi South 11.5 mph 18.4 mph N/A   Clear
3:55 AM 15.3 °F 4.4 °F 4.3 °F 62% 30.46 in 10.0 mi South 8.1 mph - N/A   Clear
4:14 AM 15.8 °F 4.2 °F 4.5 °F 61% 30.43 in 10.0 mi South 9.2 mph - N/A   Clear
4:34 AM 17.2 °F 7.8 °F 4.8 °F 58% 30.42 in 10.0 mi SSE 6.9 mph 16.1 mph N/A   Clear
4:55 AM 18.3 °F 4.6 °F 5.5 °F 57% 30.41 in 10.0 mi South 13.8 mph 20.7 mph N/A   Clear
5:14 AM 18.3 °F 6.6 °F 5.9 °F 58% 30.40 in 10.0 mi SSW 10.4 mph - N/A   Clear
5:35 AM 18.0 °F 4.2 °F 6.3 °F 60% 30.39 in 10.0 mi SSW 13.8 mph 23.0 mph N/A   Clear
5:54 AM 17.6 °F 2.7 °F 6.1 °F 61% 30.38 in 10.0 mi SSW 16.1 mph 32.2 mph N/A   Clear
6:14 AM 17.2 °F 3.3 °F 6.4 °F 63% 30.38 in 10.0 mi SSW 13.8 mph 26.5 mph N/A   Clear
6:34 AM 17.1 °F 5.8 °F 6.8 °F 64% 30.36 in 10.0 mi South 9.2 mph 16.1 mph N/A   Clear
6:55 AM 17.6 °F 5.0 °F 7.3 °F 64% 30.34 in 10.0 mi SSW 11.5 mph 17.3 mph N/A   Clear
7:14 AM 18.0 °F 3.1 °F 7.5 °F 64% 30.33 in 10.0 mi SSW 16.1 mph 28.8 mph N/A   Clear
7:35 AM 18.1 °F 2.0 °F 7.7 °F 64% 30.31 in 10.0 mi SW 19.6 mph 32.2 mph N/A   Clear
7:54 AM 18.1 °F 1.2 °F 7.7 °F 64% 30.30 in 10.0 mi SSW 21.9 mph 35.7 mph N/A   Clear
8:15 AM 18.5 °F 0.2 °F 8.2 °F 64% 30.29 in 10.0 mi SW 26.5 mph 40.3 mph N/A   Clear
8:34 AM 19.4 °F 3.2 °F 8.6 °F 63% 30.30 in 10.0 mi SW 20.7 mph 34.5 mph N/A   Clear
8:54 AM 20.7 °F 8.2 °F 9.5 °F 62% 30.30 in 10.0 mi SSW 12.7 mph 21.9 mph N/A   Clear
9:15 AM 21.9 °F 10.4 °F 10.8 °F 62% 30.29 in 10.0 mi SSW 11.5 mph 24.2 mph N/A   Clear
9:34 AM 24.3 °F 14.6 °F 11.7 °F 59% 30.27 in 10.0 mi SSW 9.2 mph 19.6 mph N/A   Clear
9:54 AM 26.2 °F 15.2 °F 11.3 °F 53% 30.24 in 10.0 mi SSW 12.7 mph 20.7 mph N/A   Clear
10:15 AM 27.5 °F 13.2 °F 11.7 °F 51% 30.21 in 10.0 mi SSW 23.0 mph 31.1 mph N/A   Clear
10:34 AM 28.8 °F 15.9 °F 11.8 °F 49% 30.20 in 10.0 mi SSW 19.6 mph 38.0 mph N/A   Clear
10:54 AM 29.5 °F 16.5 °F 12.2 °F 49% 30.20 in 10.0 mi SSW 20.7 mph 38.0 mph N/A   Clear
11:15 AM 31.5 °F 22.9 °F 12.4 °F 45% 30.20 in 10.0 mi SSW 10.4 mph 25.3 mph N/A   Clear
11:34 AM 32.0 °F 20.8 °F 12.9 °F 45% 30.19 in 10.0 mi SSW 17.3 mph 26.5 mph N/A   Clear
11:55 AM 33.3 °F 21.8 °F 13.5 °F 44% 30.17 in 10.0 mi SSW 19.6 mph 27.6 mph N/A   Clear
12:15 PM 34.7 °F 23.7 °F 13.1 °F 41% 30.14 in 10.0 mi SSW 19.6 mph 24.2 mph N/A   Clear
12:34 PM 36.0 °F 25.0 °F 13.3 °F 39% 30.12 in 10.0 mi SW 20.7 mph 32.2 mph N/A   Clear
12:55 PM 37.9 °F 27.9 °F 15.8 °F 41% 30.11 in 10.0 mi SSW 19.6 mph 27.6 mph N/A   Clear
1:14 PM 38.8 °F 30.4 °F 16.3 °F 40% 30.10 in 10.0 mi SSW 15.0 mph 28.8 mph N/A   Clear
1:35 PM 39.7 °F 31.2 °F 17.1 °F 40% 30.09 in 10.0 mi SW 16.1 mph 23.0 mph N/A   Clear
1:55 PM 40.5 °F 31.5 °F 17.2 °F 39% 30.08 in 10.0 mi SW 18.4 mph 28.8 mph N/A   Clear
2:14 PM 40.8 °F 34.1 °F 17.1 °F 38% 30.06 in 10.0 mi SW 11.5 mph 25.3 mph N/A   Clear
2:35 PM 41.0 °F 32.2 °F 16.7 °F 37% 30.06 in 10.0 mi SW 18.4 mph 28.8 mph N/A   Clear
2:54 PM 40.6 °F 31.2 °F 18.3 °F 41% 30.06 in 10.0 mi SW 20.7 mph 28.8 mph N/A   Clear
3:15 PM 40.1 °F 32.4 °F 19.9 °F 44% 30.05 in 10.0 mi SW 13.8 mph - N/A   Clear
3:34 PM 40.1 °F 31.0 °F 21.2 °F 47% 30.04 in 10.0 mi SSW 18.4 mph 27.6 mph N/A   Clear
3:55 PM 39.7 °F 30.3 °F 22.1 °F 49% 30.04 in 10.0 mi SSW 19.6 mph 27.6 mph N/A   Clear
4:14 PM 39.6 °F 31.3 °F 22.8 °F 51% 30.03 in 10.0 mi SSW 15.0 mph 25.3 mph N/A   Clear
4:35 PM 39.0 °F 30.3 °F 23.4 °F 53% 30.02 in 10.0 mi SSW 16.1 mph 24.2 mph N/A   Clear
4:54 PM 38.3 °F 30.1 °F 23.9 °F 56% 30.01 in 10.0 mi SSW 13.8 mph 23.0 mph N/A   Clear
5:14 PM 37.9 °F 28.9 °F 23.5 °F 56% 29.98 in 10.0 mi SSW 16.1 mph 25.3 mph N/A   Clear
5:35 PM 37.6 °F 27.4 °F 23.4 °F 57% 29.98 in 10.0 mi SW 19.6 mph 29.9 mph N/A   Clear
5:54 PM 37.6 °F 26.9 °F 23.9 °F 58% 29.94 in 10.0 mi SSW 21.9 mph 36.8 mph N/A   Clear
6:15 PM 37.6 °F 27.7 °F 24.4 °F 59% 29.93 in 10.0 mi SSW 18.4 mph 33.4 mph N/A   Clear
6:34 PM 37.9 °F 26.6 °F 24.8 °F 59% 29.93 in 10.0 mi SSW 25.3 mph 32.2 mph N/A   Clear
6:54 PM 37.6 °F 26.6 °F 25.2 °F 61% 29.92 in 10.0 mi SSW 23.0 mph 31.1 mph N/A   Clear
7:15 PM 37.9 °F 27.3 °F 25.2 °F 60% 29.93 in 10.0 mi SSW 21.9 mph 33.4 mph N/A   Clear
7:34 PM 37.6 °F 26.3 °F 24.8 °F 60% 29.95 in 10.0 mi SW 24.2 mph 28.8 mph N/A   Clear
7:54 PM 37.2 °F 26.7 °F 24.8 °F 61% 29.95 in 10.0 mi SW 20.7 mph 31.1 mph N/A   Clear
8:15 PM 36.9 °F 26.2 °F 25.3 °F 63% 29.94 in 10.0 mi SW 20.7 mph 29.9 mph N/A   Clear
8:34 PM 36.7 °F 27.2 °F 26.1 °F 65% 29.94 in 10.0 mi SW 16.1 mph 26.5 mph N/A   Clear
8:55 PM 36.9 °F 26.5 °F 27.0 °F 67% 29.94 in 10.0 mi SW 19.6 mph 27.6 mph N/A   Clear
9:14 PM 37.6 °F 26.6 °F 28.0 °F 68% 29.93 in 10.0 mi SW 23.0 mph 32.2 mph N/A   Clear
9:34 PM 37.4 °F 26.9 °F 28.0 °F 69% 29.93 in 10.0 mi SW 20.7 mph 31.1 mph N/A   Clear
9:55 PM 36.9 °F 25.1 °F 27.9 °F 70% 29.92 in 10.0 mi SW 25.3 mph 33.4 mph N/A   Clear
10:14 PM 36.5 °F 25.2 °F 27.5 °F 70% 29.91 in 10.0 mi SW 23.0 mph 35.7 mph N/A   Clear
10:35 PM 36.1 °F 24.7 °F 27.7 °F 71% 29.91 in 10.0 mi SW 23.0 mph 34.5 mph N/A   Clear
10:55 PM 35.8 °F 24.8 °F 27.5 °F 72% 29.90 in 10.0 mi SW 20.7 mph 33.4 mph N/A   Clear
11:14 PM 35.6 °F 23.2 °F 27.7 °F 73% 29.90 in 10.0 mi SW 26.5 mph 36.8 mph N/A   Clear
11:34 PM 35.6 °F 23.4 °F 27.5 °F 72% 29.90 in 10.0 mi SW 25.3 mph 39.1 mph N/A   Clear
11:55 PM 35.6 °F 24.0 °F 27.9 °F 73% 29.89 in 10.0 mi SW 23.0 mph 34.5 mph N/A   Clear